• în Republica Moldova
  • Lista ţărilor
  • Pe 7 zile
  • Temperatura apei
  • Hartă satelitară
  • Meteo pe hartă
  • Widget-uri
  • user-avatar
    Intrare

    Meteo pe oră la Mingachevir

    Astăzi, 30 Aprilie, Duminică

    Timp Temperatura Precipitaţii Vânt Presiune Umiditate
    00:00 +13°C° 0 mm 1 m/s 754 mmHg 75%
    01:00 +12°C° 0 mm 1 m/s 754 mmHg 76%
    02:00 +12°C° 0 mm 1 m/s 754 mmHg 77%
    03:00 +11°C° 0 mm 0 m/s 754 mmHg 79%
    04:00 +12°C° 0 mm 1 m/s 754 mmHg 76%
    05:00 +13°C° 0 mm 1 m/s 754 mmHg 73%
    06:00 +14°C° 0 mm 2 m/s 754 mmHg 69%
    07:00 +17°C° 0 mm 2 m/s 754 mmHg 62%
    08:00 +19°C° 0 mm 2 m/s 754 mmHg 54%
    09:00 +21°C° 0 mm 3 m/s 753 mmHg 46%
    10:00 +22°C° 0 mm 3 m/s 753 mmHg 43%
    11:00 +25°C° 0 mm 2 m/s 753 mmHg 40%
    12:00 +26°C° 0 mm 2 m/s 753 mmHg 37%
    13:00 +27°C° 0 mm 2 m/s 752 mmHg 36%
    14:00 +27°C° 0 mm 1 m/s 752 mmHg 35%
    15:00 +28°C° 0 mm 1 m/s 751 mmHg 34%
    16:00 +27°C° 0 mm 1 m/s 752 mmHg 39%
    17:00 +26°C° 0 mm 1 m/s 752 mmHg 45%
    18:00 +23°C° 0 mm 0 m/s 752 mmHg 50%
    19:00 +23°C° 0 mm 1 m/s 752 mmHg 50%
    20:00 +21°C° 0 mm 1 m/s 752 mmHg 51%
    21:00 +19°C° 0 mm 1 m/s 753 mmHg 51%
    22:00 +18°C° 0,1 mm 1 m/s 753 mmHg 52%
    23:00 +18°C° 0,1 mm 1 m/s 753 mmHg 53%

    Mâine, 1 Mai, Luni

    Timp Temperatura Precipitaţii Vânt Presiune Umiditate
    00:00 +16°C° 0,1 mm 1 m/s 753 mmHg 54%
    01:00 +16°C° 0 mm 1 m/s 753 mmHg 57%
    02:00 +15°C° 0 mm 1 m/s 753 mmHg 59%
    03:00 +14°C° 0 mm 1 m/s 753 mmHg 62%
    04:00 +15°C° 0 mm 1 m/s 753 mmHg 58%
    05:00 +16°C° 0 mm 1 m/s 753 mmHg 55%
    06:00 +17°C° 0 mm 2 m/s 753 mmHg 51%
    07:00 +20°C° 0 mm 2 m/s 753 mmHg 44%
    08:00 +23°C° 0 mm 2 m/s 753 mmHg 37%
    09:00 +26°C° 0 mm 2 m/s 753 mmHg 30%
    10:00 +27°C° 0 mm 2 m/s 753 mmHg 29%
    11:00 +28°C° 0 mm 2 m/s 752 mmHg 28%
    12:00 +29°C° 0 mm 1 m/s 752 mmHg 27%
    13:00 +30°C° 0 mm 1 m/s 752 mmHg 27%
    14:00 +30°C° 0 mm 1 m/s 751 mmHg 26%
    15:00 +31°C° 0 mm 1 m/s 751 mmHg 26%
    16:00 +29°C° 0 mm 1 m/s 751 mmHg 31%
    17:00 +28°C° 0 mm 1 m/s 751 mmHg 36%
    18:00 +27°C° 0 mm 1 m/s 751 mmHg 41%
    19:00 +25°C° 0 mm 2 m/s 752 mmHg 42%
    20:00 +23°C° 0 mm 2 m/s 752 mmHg 44%
    21:00 +21°C° 0 mm 2 m/s 753 mmHg 46%
    22:00 +20°C° 0 mm 2 m/s 753 mmHg 49%
    23:00 +19°C° 0 mm 2 m/s 753 mmHg 51%

    Poimâine, 2 Mai, Marţi

    Timp Temperatura Precipitaţii Vânt Presiune Umiditate
    00:00 +18°C° 0 mm 2 m/s 753 mmHg 54%
    01:00 +19°C° 0 mm 1 m/s 753 mmHg 55%
    02:00 +19°C° 0 mm 1 m/s 753 mmHg 57%
    03:00 +18°C° 0 mm 1 m/s 753 mmHg 59%
    04:00 +17°C° 0 mm 0 m/s 753 mmHg 58%
    05:00 +17°C° 0 mm 0 m/s 753 mmHg 58%
    06:00 +18°C° 0 mm 0 m/s 753 mmHg 58%
    07:00 +22°C° 0 mm 1 m/s 753 mmHg 50%
    08:00 +24°C° 0 mm 1 m/s 753 mmHg 43%
    09:00 +26°C° 0 mm 1 m/s 753 mmHg 35%
    10:00 +27°C° 0 mm 1 m/s 752 mmHg 33%
    11:00 +28°C° 0 mm 2 m/s 752 mmHg 31%
    12:00 +29°C° 0 mm 2 m/s 752 mmHg 29%
    13:00 +30°C° 0 mm 2 m/s 752 mmHg 29%
    14:00 +30°C° 0 mm 2 m/s 751 mmHg 28%
    15:00 +30°C° 0 mm 2 m/s 751 mmHg 28%
    16:00 +29°C° 0 mm 2 m/s 751 mmHg 33%
    17:00 +28°C° 0 mm 2 m/s 751 mmHg 37%
    18:00 +27°C° 0 mm 1 m/s 751 mmHg 42%
    19:00 +25°C° 0 mm 2 m/s 751 mmHg 42%
    20:00 +24°C° 0 mm 2 m/s 751 mmHg 42%
    21:00 +21°C° 0 mm 2 m/s 752 mmHg 42%
    22:00 +21°C° 0 mm 2 m/s 752 mmHg 43%
    23:00 +21°C° 0 mm 2 m/s 751 mmHg 44%

    3 Mai, Miercuri

    Timp Temperatura Precipitaţii Vânt Presiune Umiditate
    00:00 +21°C° 0 mm 1 m/s 751 mmHg 45%
    01:00 +21°C° 0,1 mm 1 m/s 751 mmHg 48%
    02:00 +21°C° 0,1 mm 1 m/s 751 mmHg 51%
    03:00 +20°C° 0,1 mm 1 m/s 750 mmHg 53%
    04:00 +21°C° 0 mm 1 m/s 750 mmHg 53%
    05:00 +20°C° 0 mm 2 m/s 750 mmHg 52%
    06:00 +20°C° 0 mm 2 m/s 751 mmHg 52%
    07:00 +22°C° 0 mm 3 m/s 750 mmHg 47%
    08:00 +24°C° 0 mm 3 m/s 750 mmHg 42%
    09:00 +26°C° 0 mm 3 m/s 750 mmHg 37%
    10:00 +27°C° 0,1 mm 3 m/s 750 mmHg 35%
    11:00 +28°C° 0,1 mm 3 m/s 749 mmHg 34%
    12:00 +29°C° 0,1 mm 2 m/s 749 mmHg 32%
    13:00 +30°C° 0,4 mm 2 m/s 749 mmHg 33%
    14:00 +30°C° 0,4 mm 3 m/s 748 mmHg 33%
    15:00 +30°C° 0,4 mm 3 m/s 748 mmHg 34%
    16:00 +29°C° 0,1 mm 3 m/s 748 mmHg 38%
    17:00 +28°C° 0,1 mm 3 m/s 748 mmHg 41%
    18:00 +27°C° 0,1 mm 3 m/s 748 mmHg 45%
    19:00 +25°C° 0,3 mm 2 m/s 749 mmHg 48%
    20:00 +23°C° 0,3 mm 2 m/s 749 mmHg 51%
    21:00 +21°C° 0,3 mm 2 m/s 749 mmHg 54%
    22:00 +20°C° 0,2 mm 2 m/s 749 mmHg 54%
    23:00 +20°C° 0,2 mm 2 m/s 749 mmHg 54%

    4 Mai, Joi

    Timp Temperatura Precipitaţii Vânt Presiune Umiditate
    00:00 +19°C° 0,2 mm 2 m/s 749 mmHg 53%
    01:00 +19°C° 0,1 mm 2 m/s 749 mmHg 54%
    02:00 +18°C° 0,1 mm 2 m/s 749 mmHg 55%
    03:00 +18°C° 0,1 mm 3 m/s 749 mmHg 56%
    04:00 +18°C° 0 mm 3 m/s 749 mmHg 55%
    05:00 +19°C° 0 mm 3 m/s 749 mmHg 55%
    06:00 +19°C° 0 mm 3 m/s 750 mmHg 55%
    07:00 +21°C° 0 mm 3 m/s 750 mmHg 50%
    08:00 +24°C° 0 mm 3 m/s 750 mmHg 44%
    09:00 +27°C° 0 mm 3 m/s 750 mmHg 38%
    10:00 +28°C° 0 mm 3 m/s 749 mmHg 36%
    11:00 +29°C° 0 mm 3 m/s 749 mmHg 34%
    12:00 +30°C° 0 mm 3 m/s 748 mmHg 32%
    13:00 +30°C° 0,1 mm 2 m/s 748 mmHg 32%
    14:00 +30°C° 0,1 mm 1 m/s 748 mmHg 32%
    15:00 +31°C° 0,1 mm 1 m/s 748 mmHg 31%
    16:00 +30°C° 0 mm 1 m/s 748 mmHg 36%
    17:00 +28°C° 0 mm 1 m/s 749 mmHg 41%
    18:00 +27°C° 0 mm 2 m/s 749 mmHg 45%
    19:00 +25°C° 0 mm 2 m/s 749 mmHg 50%
    20:00 +22°C° 0 mm 3 m/s 750 mmHg 54%
    21:00 +21°C° 0 mm 3 m/s 750 mmHg 59%
    22:00 +20°C° 0 mm 2 m/s 750 mmHg 64%
    23:00 +19°C° 0 mm 2 m/s 751 mmHg 68%

    5 Mai, Vineri

    Timp Temperatura Precipitaţii Vânt Presiune Umiditate
    00:00 +19°C° 0 mm 1 m/s 751 mmHg 73%
    01:00 +18°C° 0 mm 1 m/s 751 mmHg 74%
    02:00 +18°C° 0 mm 1 m/s 751 mmHg 76%
    03:00 +16°C° 0 mm 1 m/s 751 mmHg 77%
    04:00 +18°C° 0 mm 1 m/s 751 mmHg 73%
    05:00 +19°C° 0 mm 1 m/s 751 mmHg 70%
    06:00 +20°C° 0 mm 1 m/s 751 mmHg 66%
    07:00 +22°C° 0 mm 1 m/s 751 mmHg 60%
    08:00 +24°C° 0 mm 1 m/s 751 mmHg 53%
    09:00 +25°C° 0 mm 1 m/s 751 mmHg 46%
    10:00 +27°C° 0 mm 1 m/s 751 mmHg 44%
    11:00 +28°C° 0 mm 1 m/s 750 mmHg 41%
    12:00 +29°C° 0 mm 1 m/s 749 mmHg 38%
    13:00 +29°C° 0,1 mm 2 m/s 749 mmHg 38%
    14:00 +30°C° 0,1 mm 2 m/s 749 mmHg 37%
    15:00 +30°C° 0,1 mm 2 m/s 748 mmHg 37%
    16:00 +29°C° 0,1 mm 2 m/s 748 mmHg 41%
    17:00 +28°C° 0,1 mm 3 m/s 748 mmHg 45%
    18:00 +27°C° 0,1 mm 3 m/s 749 mmHg 50%
    19:00 +26°C° 0,1 mm 3 m/s 749 mmHg 53%
    20:00 +24°C° 0,1 mm 3 m/s 749 mmHg 57%
    21:00 +22°C° 0,1 mm 3 m/s 750 mmHg 60%
    22:00 +21°C° 0,1 mm 3 m/s 750 mmHg 63%
    23:00 +20°C° 0,1 mm 3 m/s 750 mmHg 67%
    Arată mai mult